Location: Ertinghausen
(51.6624°N, 9.7874°E)
Time: 11:30:38
(UTC+00:00)

Cosmos 2360 Rocket - Pass Details

Date: 23 May 2024
Orbit: 832 x 846 km, 71.0° (Epoch: 18 June)

Event Time Altitude Azimuth Distance (km) Brightness Sun altitude
Rises 00:12:48 0° 330° (NNW) 3,416 6.1 -16.7°
Reaches altitude 10° 00:15:30 10° 340° (NNW) 2,479 5.5 -16.6°
Maximum altitude 00:20:40 34° 45° (NE) 1,360 3.8 -16.4°
Drops below altitude 10° 00:25:48 10° 110° (ESE) 2,469 4.6 -16.2°
Sets 00:28:28 0° 120° (ESE) 3,400 5.2 -16.1°
